This is the latest recevied weather packets stored in our database for station/object AA5QJ. If no packets are shown the sender has not sent any weather packets the latest 1 day(s).
| Time | Temp. | Humidity | Pressure | Rain* | Wind** | Luminosity | Snow |
|---|---|---|---|---|---|---|---|
| 1778081575 | 12.22° C | 47% | 1015.3 hPa | 0 mm | - | - | - |
| 1778080974 | 12.78° C | 48% | 1015.3 hPa | 0 mm | - | - | - |
| 1778080075 | 13.33° C | 47% | 1014.9 hPa | 0 mm | - | - | - |
| 1778079474 | 13.33° C | 47% | 1014.9 hPa | 0 mm | - | - | - |
| 1778079174 | 13.33° C | 47% | 1014.9 hPa | 0 mm | - | - | - |
| 1778078876 | 12.78° C | 47% | 1014.9 hPa | 0 mm | - | - | - |
| 1778077975 | 12.78° C | 47% | 1014.6 hPa | 0 mm | - | - | - |
| 1778075876 | 12.22° C | 50% | 1014.3 hPa | 0 mm | - | - | - |
| 1778074675 | 11.11° C | 57% | 1013.9 hPa | 0 mm | - | - | - |
| 1778073176 | 10.56° C | 60% | 1013.6 hPa | 0 mm | - | - | - |
| 1778069875 | -9.44° C | 57% | 1012.9 hPa | 0 mm | - | - | - |
| 1778068076 | 5° C | 58% | 1012.9 hPa | 0 mm | - | - | - |
| 1778067776 | 3.33° C | 58% | 1012.9 hPa | 0 mm | - | - | - |
| 1778066875 | -3.33° C | 58% | 1012.6 hPa | 0 mm | - | - | - |
| 1778066575 | -3.89° C | 58% | 1012.6 hPa | 0 mm | - | - | - |
| 1778064775 | 0.56° C | 58% | 1012.6 hPa | 0 mm | - | - | - |
| 1778063576 | 4.44° C | 56% | 1011.9 hPa | 0 mm | - | - | - |
| 1778063276 | -10.56° C | 56% | 1011.9 hPa | 0 mm | - | - | - |
| 1778062976 | -7.22° C | 56% | 1011.9 hPa | 0 mm | - | - | - |
| 1778062075 | -0.56° C | 55% | 1011.9 hPa | 0 mm | - | - | - |
| 1778061775 | -4.44° C | 54% | 1011.9 hPa | 0 mm | - | - | - |
| 1778061475 | 2.22° C | 54% | 1011.9 hPa | 0 mm | - | - | - |
| 1778060876 | -0.56° C | 53% | 1011.6 hPa | 0 mm | - | - | - |
| 1778060576 | 3.33° C | 53% | 1011.6 hPa | 0 mm | - | - | - |
| 1778059975 | 0.56° C | 53% | 1011.6 hPa | 0 mm | - | - | - |
* Rain latest hour (hover to see other rain measurements)
** Current wind speed in m/s (hover to see current wind gust speed)